Regional Weather Roundup
Issued by NWS Burlington, VT

Current Version | Previous Version | Text Only | Print | Product List | Glossary On
Versions: 1 2 3 4 5 6 7 8 9 10 11 12 13 14 15 16 17 18 19 20 21 22 23 24 25 26 27 28 29 30 31 32 33 34 35 36 37 38 39 40 41 42 43 44 45 46 47 48 49 50
000
ASUS41 KBTV 240530
RWRBTV
VERMONT REGIONAL WEATHER ROUNDUP
NATIONAL WEATHER SERVICE BURLINGTON VT
1200 AM EST SAT FEB 24 2018

NOTE: "FAIR" INDICATES FEW OR NO CLOUDS BELOW 12,000 FEET WITH NO
SIGNIFICANT WEATHER AND/OR OBSTRUCTIONS TO VISIBILITY.

* THESE REPORTS ARE NOT UNDER NWS QUALITY CONTROL AND/OR DO NOT
  REPORT WEATHER SUCH AS PRECIPITATION AND FOG.

VTZ001>019-240600-
_____VERMONT_____


CITY           SKY/WX    TMP DP  RH WIND       PRES   REMARKS
BURLINGTON     CLOUDY    39  34  82 S18G25    29.99S WCI  30
MONTPELIER     CLOUDY    34  33  96 E3        29.99F
MORRISVILLE    CLOUDY    34  34 100 N5        29.97S WCI  30
ST. JOHNSBURY*   N/A     34  34 100 MISG      29.97F
LYNDONVILLE*   MIX PCPN  32  32 100 SE6       29.98S VSB 1   WCI  26
MIDDLEBURY*    CLOUDY    38  35  90 S10       30.02F WCI  30
RUTLAND*       CLOUDY    39  38  96 CALM      30.05S
SPRINGFIELD    CLOUDY    33  33 100 CALM      30.03F
HIGHGATE*      MIX PCPN  36  35  94 SW6G17    29.98R WCI  32
NEWPORT*       DRIZZLE   33  33  99 S8        29.95S WCI  26
BENNINGTON     CLOUDY    37  35  92 CALM      30.07S
GALLUP MILLS*    N/A     32 N/A N/A MISG        N/A
UNION VILLAGE*   N/A     34 N/A N/A MISG        N/A
MT. MANSFIELD*   N/A     32 N/A N/A W10G51      N/A  WCI  24

_____LAKE CHAMPLAIN_____


CITY           SKY/WX    TMP DP  RH WIND       PRES   REMARKS

$$

NYZ007-026>031-035-052-083-087-240600-
_____NORTHERN NEW YORK_____


CITY           SKY/WX    TMP DP  RH WIND       PRES   REMARKS
PLATTSBURGH    CLOUDY    36  33  89 S9        29.98S WCI  29
SARANAC LAKE   CLOUDY    40  40 100 SW12      29.97R FOG
MASSENA        CLOUDY    42  41  96 SW14      30.03R
OGDENSBURG*    CLOUDY    41  40  97 SW8       30.05R
POTSDAM*       CLOUDY    41  41 100 SW15      30.03R
STARK FALLS*     N/A     39 N/A N/A W9          N/A
WATERTOWN      CLOUDY    39  39 100 SW10      30.10R FOG
FT DRUM        CLOUDY    41  40  95 W13       30.07R
ALBANY         CLOUDY    37  33  85 S12       30.10F WCI  29
GLENS FALLS    CLOUDY    34  34 100 S5        30.08S FOG     WCI  30

$$
NHZ002-005-011-240600-
_____NEW HAMPSHIRE_____


CITY           SKY/WX    TMP DP  RH WIND       PRES   REMARKS
LEBANON        CLOUDY    35  33  92 CALM      30.02F
KEENE          CLOUDY    33  33 100 S3        30.06F
MT WASHINGTON  FOG       27  27 100 W68G75      N/A  VSB 1/16WCI   4
PLYMOUTH       CLOUDY    32  32  99 CALM      30.01F FOG
WHITEFIELD     CLOUDY    34  33  96 CALM      29.97F

$$

_____REGIONAL QUEBEC LOCATIONS_____


CITY           SKY/WX    TMP DP  RH WIND       PRES   REMARKS
MONTREAL       CLOUDY    36  36 100 W18G25    29.96R WCI  25
QUEBEC CITY    FRZ DRZL  27  27 100 W2        29.88F
SHERBROOKE     LGT RAIN  34  34 100 SW5       29.91S FOG     WCI  30

_____REGIONAL ONTARIO LOCATIONS_____


CITY           SKY/WX    TMP DP  RH WIND       PRES   REMARKS
OTTAWA         MOCLDY    37  36  93 SW9       29.99R WCI  31

______KEY______
VSB  - VISIBILITY IN MILES
WCI  - WIND CHILL INDEX
HX   - HEAT INDEX
$$
NNNN



USA.gov is the U.S. government's official web portal to all federal, state and local government web resources and services.